Regional Weather Roundup
Issued by NWS

Home | Current Version | Previous Version | Graphics & Text | Print | Product List | Glossary On
Versions: 1 2 3 4 5 6 7 8 9 10 11 12 13 14 15 16 17 18 19 20 21 22 23 24 25 26 27 28 29 30 31 32 33 34 35 36 37 38 39 40 41 42 43 44 45 46 47 48 49 50
000
ASUS43 KOAX 260202
RWRNE

WEATHER ROUNDUP FOR NEBRASKA
NATIONAL WEATHER SERVICE OMAHA NE
900 PM CDT FRI JUL 25 2014

NOTES: SATELLITE DATA IS BEING USED TO AUGMENT CLOUD COVER ABOVE
       12000 FEET.
       "FAIR" INDICATES FEW OR NO CLOUDS BELOW 12,000 FEET WITH NO
       SIGNIFICANT WEATHER AND/OR OBSTRUCTIONS TO VISIBILITY.

  * THESE STATIONS DO NOT REPORT WEATHER SUCH AS RAIN...SNOW OR FOG.

NEZ001>004-019>022-054>056-260300-
NEBRASKA PANHANDLE

CITY           SKY/WX    TMP DP  RH WIND       PRES   REMARKS
SCOTTSBLUFF    MOCLDY    74  64  71 SE12      29.95R
ALLIANCE       MOCLDY    76  57  51 SE13      29.92F
CHADRON        PTCLDY    84  53  34 S20       29.83F
KIMBALL        CLOUDY    68  60  77 E8        30.03F
SIDNEY         LGT RAIN  82  54  37 NW12G28   30.05R
$$

NEZ057>060-069>072-079>082-260300-
SOUTHWEST NEBRASKA

CITY           SKY/WX    TMP DP  RH WIND       PRES   REMARKS
NORTH PLATTE   CLOUDY    79  71  76 E5        29.87R
IMPERIAL       CLOUDY    82  66  58 SE5       29.91R
LEXINGTON      MOCLDY    81  73  77 NE5       29.85R HAZE
MCCOOK         CLOUDY    84  69  60 E3        29.86R
OGALLALA       CLOUDY    80  64  58 CALM      29.93R
$$

NEZ005>010-023>029-035>040-094-260300-
NORTH CENTRAL NEBRASKA

CITY           SKY/WX    TMP DP  RH WIND       PRES   REMARKS
VALENTINE      MOCLDY    82  61  48 W8        29.89R
AINSWORTH      PTCLDY    82  67  60 SE3       29.87R
BROKEN BOW     PTCLDY    78  71  79 N3        29.86R
ORD            PTCLDY    78  74  87 SW5       29.82R
$$

NEZ041-046>049-061>064-073>077-083>087-260300-
SOUTH CENTRAL NEBRASKA

CITY           SKY/WX    TMP DP  RH WIND       PRES   REMARKS
GRAND ISLAND   PTCLDY    83  75  77 N5        29.81S HX  90
AURORA         PTCLDY    80  77  90 NE5       29.80R
HASTINGS       CLEAR     83  70  64 CALM      29.81S
HEBRON         CLEAR     82  73  73 CALM      29.77R
HOLDREGE       PTCLDY    78  72  80 CALM      29.83S
KEARNEY *      PTCLDY    81  70  69 N8        29.83S
YORK           PTCLDY    81  77  89 N5        29.79S
$$

NEZ011>018-030>034-042>045-260300-
NORTHEAST NEBRASKA

CITY           SKY/WX    TMP DP  RH WIND       PRES   REMARKS
NORFOLK        PTCLDY    81  73  76 CALM      29.79R
ALBION         PTCLDY    81  73  77 CALM      29.81R
BLAIR          PTCLDY    82  76  82 N8        29.75S HX  90
COLUMBUS *     MOCLDY    82  73  74 NW6       29.78R
FREMONT        PTCLDY    86  77  74 CALM      29.76R HX  97
WAYNE          PTCLDY    79  75  87 CALM      29.79R
$$

NEZ050>053-065>068-078-088>093-260300-
SOUTHEAST NEBRASKA

CITY           SKY/WX    TMP DP  RH WIND       PRES   REMARKS
LINCOLN        PTCLDY    89  75  63 N7        29.76R HX  99
OMAHA EPPLEY   MOCLDY    85  76  74 E6        29.73R HX  94
BEATRICE       CLEAR     83  77  81 N5        29.75S HX  92
FALLS CITY     CLEAR     90  72  55 S7        29.72R HX  97
NEBRASKA CITY  CLEAR     85  75  71 N5        29.74R HX  93
PLATTSMOUTH    PTCLDY    87  76  69 CALM      29.74R HX  97
$$

NEZ044-045-051>053-067-260300-
OMAHA AREA

CITY           SKY/WX    TMP DP  RH WIND       PRES   REMARKS
OMAHA EPPLEY   MOCLDY    85  76  74 E6        29.73R HX  94
BLAIR          PTCLDY    82  76  82 N8        29.75S HX  90
FREMONT        PTCLDY    86  77  74 CALM      29.76R HX  97
MILLARD        PTCLDY    85  74  68 CALM      29.73R HX  92
OFFUTT AFB     PTCLDY    84  83  99 NE7       29.72S HX 102
PLATTSMOUTH    PTCLDY    87  76  69 CALM      29.74R HX  97
WAHOO          FAIR      83  77  82 N3        29.75R HX  92
$$


USA.gov is the U.S. government's official web portal to all federal, state and local government web resources and services.